ONEWEB-0008, 44059

Orbit data source: Space-Track

ONEWEB-0008, 44059 is a payload satellite owned by One Web (UK) in LEO that was launched on Wed, 27 Feb 2019 UTC via a SOYUZ-ST-B launch vehicle from the French Guiana (FRGUI). Payload-class satellites include a variety of spacecraft equipped with specific instruments for various scientific and technological missions. These include communications satellites like Starlink; space stations such as the ISS; scientific satellites like the Hubble; Earth observation satellites from companies like Planet Labs, Umbra, and HawkEye 360; GPS; miniature CubeSats for education and research; and military/defense satellites.

Loading next visibility...
Identifier
44059, 2019-010C
Orbit
LEO
Country
Flag of UKUK
Related business
Manufacturer
Airbus/Toulouse
Mission
Operational Commercial Communications
Bus & Motor
ARROW, Unknown motor
Mass
148 kg wet, ~140 kg dry
Launch date (UTC)
2019-02-27 (7 years ago)
Launch vehicle
SOYUZ-ST-B
Launch site
French Guiana (FRGUI)
Object type
Payload
Rocket body
Debris
Shape & HBR
Trap Box + 2 Pan, 2.5 m
Radar Cross Section
2.957 m², Large (>1 m²)

Expand to show TLE details & history
Last TLE update: 20 hours ago

TLE from 20 hours ago
0 ONEWEB-0008
1 44059U 19010C   25260.62673102 -.00000051  00000-0 -16685-3 0  9992
2 44059  87.8969 283.1010 0002094  93.3851 266.7520 13.16591845315864
Epoch: 2025-09-17T15:02Z
TLE epoch observation values (Epoch: 2025-09-17T15:02:29.56Z)
Latitude
0.00005°
Longitude
60.67786°
Altitude
1,200.753 km
Speed
7.253 km/s
True Right ascension
18h 52m 24s
True Declination
0° 00' 00"
Sunlit
Object was in daylight at epoch
Visualization orbit readout
Latitude
Unknown
Longitude
Unknown
Altitude
Unknown
Speed
Unknown
Apparent Right ascension
Unknown
Apparent Declination
Unknown
Sunlit
N/A
Visualization observer readout
Local Sidereal Time
04:03:38
Azimuth
Unknown
Elevation
Unknown
Doppler factor
Unknown
Orbital elements
Apogee altitude
1,196.462 km
Perigee altitude
1,193.291 km
Semi-major axis
7,573.013 km
Eccentricity
0.00021
Inclination
87.8969°
RAAN
283.101°
Arg. of periapsis
93.3851°
True anomaly
266.72804°
Mean anomaly
266.752°
Eccentric anomaly
266.74002°
Mean motion
3.29337 °/min
Orbital period
109.31 mins
BSTAR
-0.00016685
Loading maneuver chart data...
Computing Atmospheric mass density...
Loading historical data...
Loading historical data...
Loading historical data...
Loading historical data...
Loading historical data...
Loading historical data...
Loading historical data...
Other satellites on launch #10 in the year 2019 (2019-02-27 UTC)

Documentation

Showing up to 5 results
|